Regional Weather Roundup
Issued by NWS

Home | Current Version | Previous Version | Graphics & Text | Print | Product List | Glossary Off
Versions: 1 2 3 4 5 6 7 8 9 10 11 12 13 14 15 16 17 18 19 20 21 22 23 24 25 26 27 28 29 30 31 32 33 34 35 36 37 38 39 40 41 42 43 44 45 46 47 48 49 50

000
ASUS43 KTOP 090008
RWRKS

WEATHER ROUNDUP FOR KANSAS
NATIONAL WEATHER SERVICE GOODLAND KS
600 PM CST MON FEB 08 2016

NOTE:  "FAIR" INDICATES FEW OR NO CLOUDS BELOW 12,000 FEET WITH NO
SIGNIFICANT WEATHER AND/OR OBSTRUCTIONS TO VISIBILITY.

KSZ001>006-013>018-027>032-041>047-090100-
NORTHWEST KANSAS

CITY           SKY/WX    TMP DP  RH WIND       PRES   REMARKS
GOODLAND       CLOUDY    35  25  66 NW10      30.27F WCI  27
6HR MIN TEMP:  34; 6HR MAX TEMP:  38;

HAYS           PTCLDY    37  14  38 NW21G26   30.26F WCI  27
HILL CITY      CLEAR     35  20  54 NW10      30.27F WCI  27
6HR MIN TEMP:  35; 6HR MAX TEMP:  38;

RUSSELL        PTCLDY    35  20  54 NW16      30.24F WCI  25
6HR MIN TEMP:  35; 6HR MAX TEMP:  40;

$$

KSZ061>065-074>080-084>089-090100-
SOUTHWEST KANSAS

CITY           SKY/WX    TMP DP  RH WIND       PRES   REMARKS
DODGE CITY     CLEAR     37   3  24 NW15      30.30F WCI  28
6HR MIN TEMP:  37; 6HR MAX TEMP:  43;

ELKHART          N/A     47  18  31 N15         N/A
GARDEN CITY    CLEAR     37  13  37 N13       30.31S WCI  29
6HR MIN TEMP:  37; 6HR MAX TEMP:  45;

GREAT BEND     PTCLDY    37  14  38 NW15G23   30.28R WCI  28
LIBERAL        CLEAR     45  14  29 N18G25    30.33R
PRATT          CLEAR     36   9  33 N24G30    30.27R WCI  24
6HR MIN TEMP:  36; 6HR MAX TEMP:  40;

$$

KSZ066>073-081>083-090>101-090100-
SOUTHEAST KANSAS

CITY           SKY/WX    TMP DP  RH WIND       PRES   REMARKS
CHANUTE        CLEAR     37  11  34 NW15      30.15R WCI  28
6HR MIN TEMP:  36; 6HR MAX TEMP:  42;

COFFEYVILLE    CLEAR     40  13  33 NW20G29   30.17R WCI  30
6HR MIN TEMP:  40; 6HR MAX TEMP:  45;

HUTCHINSON     CLEAR     38  15  39 NW21G28   30.23R WCI  28
6HR MIN TEMP:  38; 6HR MAX TEMP:  45;

MEDICINE LODGE   N/A     40  11  30 NW20G32   30.26S WCI  30
NEWTON         CLEAR     37  12  35 NW24G35   30.21R WCI  26
PARSONS        CLEAR     38  13  35 NW15G26   30.16R WCI  29
6HR MIN TEMP:  38; 6HR MAX TEMP:  45;

WICHITA INTL   PTCLDY    41  12  30 NW26G37   30.22S
6HR MIN TEMP:  41; 6HR MAX TEMP:  46;

WICHITA JABRA  CLEAR     38  14  37 NW16G31   30.20S WCI  29
6HR MIN TEMP:  38; 6HR MAX TEMP:  44;

WINFIELD       CLEAR     40  13  33 NW20G28   30.23R WCI  30
6HR MIN TEMP:  40; 6HR MAX TEMP:  47;

$$

KSZ007>012-019>026-033>040-048>060-102>105-090100-
NORTHEAST KANSAS

CITY           SKY/WX    TMP DP  RH WIND       PRES   REMARKS
CONCORDIA      CLEAR     36  18  48 NW16      30.19S WCI  26
6HR MIN TEMP:  35; 6HR MAX TEMP:  39;

EMPORIA        CLEAR     35  13  40 NW20G31   30.15R WCI  24
6HR MIN TEMP:  35; 6HR MAX TEMP:  39;

LAWRENCE       CLEAR     32  16  51 NW16      30.12S WCI  21
6HR MIN TEMP:  32; 6HR MAX TEMP:  38;

MANHATTAN      CLEAR     37  18  46 NW8G21    30.17S
6HR MIN TEMP:  35; 6HR MAX TEMP:  40;

MARYSVILLE     CLEAR     34  23  64 NW20G26   30.14S WCI  22
OLATHE IND     CLEAR     31  15  52 NW20G30   30.11R WCI  19
6HR MIN TEMP:  31; 6HR MAX TEMP:  35; 6HR PCP: TRACE;

OLATHE EXE     PTCLDY    31  14  49 NW16G37   30.09R WCI  20
6HR MIN TEMP:  30; 6HR MAX TEMP:  34; 6HR PCP: TRACE;

SALINA         CLEAR     39  15  37 NW23      30.22R WCI  28
6HR MIN TEMP:  39; 6HR MAX TEMP:  44;

TOPEKA BILLARD CLEAR     34  12  40 NW17      30.14R WCI  23
6HR MIN TEMP:  34; 6HR MAX TEMP:  38; 6HR PCP: TRACE;

TOPEKA FORBES  CLEAR     35  14  42 NW30G37   30.12S WCI  22
6HR MIN TEMP:  35; 6HR MAX TEMP:  40;

$$



USA.gov is the U.S. government's official web portal to all federal, state and local government web resources and services.